Date String (YYYY-MM-DD hh:mm:ss) UTC,Instrument flags,Ambient pressure (hPa),Sample flow (lpm),Bypass flow (lpm),Sample temperature (°C),Ambient temperature (°C),ASC tube jacket temperature (°C),LED temperature (°C),Box temperature (°C),Sample RH (%),Span deviation,Mass concentration (μg/m³),Mass concentration (μg/m³),Mass concentration (μg/m³)
DateTimeUTC,F1_M11,P_M11,Q1_M11,Q2_M11,T1_M11,T2_M11,T3_M11,T4_M11,T5_M11,U1_M11,ZSPAN_M11,X0_M11,X2_M11,X1_M11
2022-08-28 00:00:00,,0821.9,5.01,0.00,29.3,27.5,00.0,37.9,31.1,15.7,0000.0,0005.62,0003.37,0002.87
2022-08-28 00:01:00,,0822.1,5.00,0.00,29.3,27.7,00.0,37.9,31.1,15.8,0000.0,0005.98,0003.36,0002.85
2022-08-28 00:02:00,,0821.9,5.00,0.00,29.3,28.0,00.0,37.9,31.2,16.2,0000.0,0006.65,0003.34,0002.83
2022-08-28 00:03:00,,0821.8,5.00,0.00,29.4,28.2,00.0,38.0,31.3,15.9,0000.0,0006.51,0003.34,0002.81
2022-08-28 00:04:00,,0821.8,5.00,0.00,29.4,28.3,00.0,38.0,31.4,15.6,0000.0,0006.60,0003.32,0002.81
2022-08-28 00:05:00,,0821.8,5.00,0.00,29.5,27.8,00.0,38.0,31.4,15.6,0000.0,0007.36,0003.34,0002.79
2022-08-28 00:06:00,,0821.8,4.99,0.00,29.4,26.6,00.0,38.0,31.2,15.5,0000.0,0007.43,0003.33,0002.77
2022-08-28 00:07:00,,0821.8,5.00,0.00,29.3,26.3,00.0,38.0,31.1,15.8,0000.0,0007.28,0003.31,0002.76
2022-08-28 00:08:00,,0822.1,5.00,0.00,29.3,26.6,00.0,37.9,31.1,16.0,0000.0,0007.19,0003.28,0002.74
2022-08-28 00:09:00,,0821.9,5.00,0.00,29.3,26.9,00.0,37.9,31.0,16.0,0000.0,0007.27,0003.27,0002.72
2022-08-28 00:10:00,,0821.9,5.00,0.00,29.3,27.2,00.0,37.9,31.0,15.9,0000.0,0007.26,0003.25,0002.69
2022-08-28 00:11:00,,0821.9,4.99,0.00,29.3,27.5,00.0,37.9,31.1,16.0,0000.0,0007.11,0003.22,0002.66
2022-08-28 00:12:00,,0822.1,5.00,0.00,29.3,27.8,00.0,37.9,31.2,15.8,0000.0,0006.92,0003.23,0002.64
2022-08-28 00:13:00,,0822.0,5.00,0.00,29.3,28.0,00.0,37.9,31.2,15.7,0000.0,0005.91,0003.22,0002.63
2022-08-28 00:14:00,,0822.0,5.00,0.00,29.4,28.2,00.0,38.0,31.3,15.9,0000.0,0005.69,0003.19,0002.63
2022-08-28 00:15:00,,0822.1,5.01,0.00,29.4,28.4,00.0,38.0,31.4,15.8,0000.0,0005.68,0003.17,0002.61
2022-08-28 00:16:00,,0822.1,4.99,0.00,29.5,28.0,00.0,38.0,31.4,15.9,0000.0,0005.24,0003.17,0002.60
2022-08-28 00:17:00,,0822.1,4.99,0.00,29.4,26.7,00.0,38.0,31.2,15.8,0000.0,0005.32,0003.19,0002.61
2022-08-28 00:18:00,,0822.1,5.01,0.00,29.4,26.3,00.0,38.0,31.2,16.1,0000.0,0005.45,0003.21,0002.62
2022-08-28 00:19:00,,0822.1,4.99,0.00,29.3,26.5,00.0,38.0,31.1,16.1,0000.0,0005.37,0003.19,0002.62
2022-08-28 00:20:00,,0822.1,5.00,0.00,29.3,26.8,00.0,37.9,31.0,16.0,0000.0,0005.19,0003.17,0002.61
2022-08-28 00:21:00,,0822.1,5.01,0.00,29.3,27.1,00.0,37.9,31.0,16.0,0000.0,0005.29,0003.17,0002.62
2022-08-28 00:22:00,,0822.1,4.99,0.00,29.3,27.5,00.0,37.9,31.1,16.2,0000.0,0006.67,0003.18,0002.61
2022-08-28 00:23:00,,0822.1,5.00,0.00,29.3,27.7,00.0,37.9,31.1,16.4,0000.0,0006.46,0003.15,0002.61
2022-08-28 00:24:00,,0822.1,4.99,0.00,29.3,27.9,00.0,37.9,31.2,16.3,0000.0,0006.44,0003.15,0002.61
2022-08-28 00:25:00,,0822.1,4.99,0.00,29.4,28.1,00.0,38.0,31.2,16.3,0000.0,0006.53,0003.14,0002.60
2022-08-28 00:26:00,,0822.1,5.01,0.00,29.4,28.3,00.0,38.0,31.3,16.1,0000.0,0007.77,0003.13,0002.60
2022-08-28 00:27:00,,0822.1,4.99,0.00,29.4,28.4,00.0,38.0,31.4,16.1,0000.0,0007.60,0003.12,0002.61
2022-08-28 00:28:00,,0822.1,4.99,0.00,29.5,27.7,00.0,38.0,31.4,16.1,0000.0,0007.54,0003.10,0002.62
2022-08-28 00:29:00,,0822.1,5.02,0.00,29.4,26.4,00.0,38.0,31.3,16.2,0000.0,0007.52,0003.08,0002.62
2022-08-28 00:30:00,,0822.1,5.00,0.00,29.4,26.3,00.0,38.0,31.2,16.1,0000.0,0007.53,0003.11,0002.63
2022-08-28 00:31:00,,0822.1,5.00,0.00,29.3,26.5,00.0,37.9,31.1,16.2,0000.0,0007.63,0003.14,0002.63
2022-08-28 00:32:00,,0822.1,5.00,0.00,29.3,26.8,00.0,37.9,31.0,16.5,0000.0,0007.72,0003.18,0002.65
2022-08-28 00:33:00,,0822.2,5.00,0.00,29.2,27.2,00.0,37.9,31.0,16.7,0000.0,0007.98,0003.19,0002.66
2022-08-28 00:34:00,,0822.2,4.99,0.00,29.3,27.5,00.0,37.9,31.1,16.6,0000.0,0008.83,0003.21,0002.66
2022-08-28 00:35:00,,0822.2,5.02,0.00,29.3,27.7,00.0,37.9,31.1,16.5,0000.0,0008.93,0003.23,0002.65
2022-08-28 00:36:00,,0822.2,5.00,0.00,29.3,27.9,00.0,37.9,31.2,16.5,0000.0,0009.04,0003.26,0002.66
2022-08-28 00:37:00,,0822.3,5.00,0.00,29.3,28.1,00.0,38.0,31.3,16.4,0000.0,0008.19,0003.26,0002.66
2022-08-28 00:38:00,,0822.3,4.99,0.00,29.4,28.3,00.0,38.0,31.4,16.2,0000.0,0008.29,0003.25,0002.65
2022-08-28 00:39:00,,0822.3,5.00,0.00,29.4,28.3,00.0,38.0,31.4,16.1,0000.0,0008.42,0003.27,0002.64
2022-08-28 00:40:00,,0822.4,5.00,0.00,29.4,27.3,00.0,38.0,31.3,16.2,0000.0,0008.44,0003.30,0002.65
2022-08-28 00:41:00,,0822.3,5.02,0.00,29.4,26.2,00.0,38.0,31.2,16.2,0000.0,0008.44,0003.30,0002.65
2022-08-28 00:42:00,,0822.2,4.99,0.00,29.3,26.3,00.0,37.9,31.1,16.0,0000.0,0008.34,0003.28,0002.65
2022-08-28 00:43:00,,0822.2,5.00,0.00,29.3,26.6,00.0,37.9,31.0,15.9,0000.0,0008.18,0003.24,0002.64
2022-08-28 00:44:00,,0822.2,4.99,0.00,29.2,26.9,00.0,37.9,31.0,15.9,0000.0,0006.99,0003.23,0002.62
2022-08-28 00:45:00,,0822.3,5.00,0.00,29.2,27.2,00.0,37.9,31.0,15.9,0000.0,0005.54,0003.21,0002.62
2022-08-28 00:46:00,,0822.2,5.01,0.00,29.2,27.5,00.0,37.9,31.1,16.0,0000.0,0005.50,0003.22,0002.61
2022-08-28 00:47:00,,0822.3,4.99,0.00,29.3,27.7,00.0,37.9,31.1,15.9,0000.0,0005.28,0003.20,0002.60
2022-08-28 00:48:00,,0822.3,5.01,0.00,29.3,28.0,00.0,37.9,31.2,16.0,0000.0,0005.18,0003.19,0002.58
2022-08-28 00:49:00,,0822.2,5.00,0.00,29.3,28.1,00.0,38.0,31.3,16.1,0000.0,0004.95,0003.20,0002.56
2022-08-28 00:50:00,,0822.2,5.00,0.00,29.4,28.3,00.0,38.0,31.3,16.2,0000.0,0005.15,0003.21,0002.54
2022-08-28 00:51:00,,0822.2,5.00,0.00,29.4,28.5,00.0,38.0,31.4,16.2,0000.0,0005.56,0003.20,0002.52
2022-08-28 00:52:00,,0822.3,5.00,0.00,29.5,28.3,00.0,38.0,31.4,16.1,0000.0,0005.92,0003.21,0002.50
2022-08-28 00:53:00,,0822.3,5.00,0.00,29.5,27.1,00.0,38.0,31.3,16.1,0000.0,0006.12,0003.22,0002.47
2022-08-28 00:54:00,,0822.3,5.01,0.00,29.4,26.2,00.0,38.0,31.1,16.3,0000.0,0006.27,0003.23,0002.45
2022-08-28 00:55:00,,0822.2,5.00,0.00,29.3,26.4,00.0,38.0,31.1,16.4,0000.0,0006.43,0003.25,0002.43
2022-08-28 00:56:00,,0822.4,5.00,0.00,29.3,26.6,00.0,37.9,31.0,16.5,0000.0,0006.47,0003.25,0002.43
2022-08-28 00:57:00,,0822.4,5.00,0.00,29.2,27.0,00.0,37.9,31.0,17.0,0000.0,0006.46,0003.22,0002.42
2022-08-28 00:58:00,,0822.4,5.00,0.00,29.2,27.3,00.0,37.9,31.0,17.8,0000.0,0006.98,0003.24,0002.41
2022-08-28 00:59:00,,0822.4,5.01,0.00,29.3,27.6,00.0,37.9,31.1,18.2,0000.0,0007.46,0003.24,0002.41
